This is the latest recevied weather packets stored in our database for station/object wb2ifs-13. If no packets are shown the sender has not sent any weather packets the latest 10 day(s).
| Time | Temp. | Humidity | Pressure | Rain* | Wind** | Luminosity | Snow |
|---|---|---|---|---|---|---|---|
| 1788536704 | 29.44° C | 78% | 1015.1 hPa | 0 mm | - | - | - |
| 1788535803 | 28.89° C | 75% | 1015.2 hPa | 0 mm | - | - | - |
| 1788534904 | 28.33° C | 78% | 1015.3 hPa | 0 mm | - | - | - |
| 1788534006 | 28.33° C | 82% | 1015.6 hPa | 0 mm | - | - | - |
| 1788533103 | 27.78° C | 81% | 1015.4 hPa | 0 mm | - | - | - |
| 1788532202 | 27.22° C | 84% | 1015.5 hPa | 0 mm | - | - | - |
| 1788531303 | 26.67° C | 88% | 1015.4 hPa | 0 mm | - | - | - |
| 1788530404 | 26.11° C | 91% | 1015.5 hPa | 0 mm | - | - | - |
| 1788529505 | 25.56° C | 92% | 1015.5 hPa | 0 mm | - | - | - |
| 1788528604 | 25° C | 94% | 1015.5 hPa | 0 mm | - | - | - |
| 1788527703 | 23.89° C | 98% | 1015.5 hPa | 0 mm | - | - | - |
| 1788526803 | 23.33° C | 99% | 1015.5 hPa | 0 mm | - | - | - |
| 1788525903 | 23.33° C | 99% | 1015.6 hPa | 0 mm | - | - | - |
| 1788525004 | 22.78° C | 100% | 1015.6 hPa | 0 mm | - | - | - |
| 1788524103 | 22.22° C | 100% | 1015.3 hPa | 0 mm | - | - | - |
| 1788523205 | 22.22° C | 100% | 1015.5 hPa | 0 mm | - | - | - |
| 1788522303 | 21.67° C | 100% | 1015.4 hPa | 0 mm | - | - | - |
| 1788521405 | 21.67° C | 100% | 1015.3 hPa | 0 mm | - | - | - |
| 1788520503 | 21.67° C | 100% | 1015.5 hPa | 0 mm | - | - | - |
| 1788519603 | 21.67° C | 100% | 1015.4 hPa | 0 mm | - | - | - |
| 1788518703 | 21.67° C | 99% | 1015.3 hPa | 0 mm | - | - | - |
| 1788517804 | 21.67° C | 100% | 1015.5 hPa | 0 mm | - | - | - |
| 1788516903 | 21.67° C | 100% | 1015.4 hPa | 0 mm | - | - | - |
| 1788516003 | 21.67° C | 100% | 1014.5 hPa | 0 mm | - | - | - |
| 1788515103 | 21.67° C | 99% | 1014 hPa | 0 mm | - | - | - |
* Rain latest hour (hover to see other rain measurements)
** Current wind speed in m/s (hover to see current wind gust speed)